Torna al catalogo

STARLINK-3138

AttivoComunicazioniVLEO
NORAD 49430·PAYLOAD·🇺🇸 United States

Lanciato Nov 13, 2021 da Cape Canaveral Space Force Station

Loading…

Prossimi Passaggi (prossime 24 ore)

TLE

AggiornatoSource: CelesTrak SupGP

Epoca: Sep 14, 2026, 13:36 UTC

1 49430C 21104Y   26257.56715278  .00008718  00000+0  25760-3 0  2574
2 49430  53.1573  89.0982 0001060  88.2072 312.7992 15.34382725    10

Traccia STARLINK-3138 in tempo reale con AllMySat

Download on the App Store